| time (UTC) | temp F | wind direction | speed MPH | gust MPH | rain 1hr in | rain 24hr in | rain mn in | humidity % | barometer mb |
| 20260901014531 | 76 | 230 | 4.0 | 10.0 | 0.00 | 0.00 | 0.00 | 45 | 1019.9 |
| 20260901014015 | 76 | 309 | 3.0 | 10.0 | 0.00 | 0.00 | 0.00 | 42 | 1019.8 |
| 20260901013516 | 77 | 312 | 3.0 | 9.0 | 0.00 | 0.00 | 0.00 | 41 | 1019.9 |
| 20260901013031 | 77 | 289 | 3.0 | 12.0 | 0.00 | 0.00 | 0.00 | 41 | 1019.8 |
| 20260901012510 | 77 | 285 | 5.0 | 12.0 | 0.00 | 0.00 | 0.00 | 40 | 1019.9 |
| 20260901012010 | 77 | 293 | 6.0 | 12.0 | 0.00 | 0.00 | 0.00 | 39 | 1019.8 |
| 20260901011523 | 78 | 304 | 5.0 | 10.0 | 0.00 | 0.00 | 0.00 | 38 | 1019.7 |
| 20260901011015 | 79 | 298 | 4.0 | 17.0 | 0.00 | 0.00 | 0.00 | 37 | 1019.7 |
| 20260901010513 | 79 | 275 | 5.0 | 17.0 | 0.00 | 0.00 | 0.00 | 35 | 1019.7 |
| 20260901010025 | 80 | 205 | 7.0 | 12.0 | 0.00 | 0.00 | 0.00 | 34 | 1019.5 |
| 20260901005516 | 80 | 285 | 4.0 | 9.0 | 0.00 | 0.00 | 0.00 | 32 | 1019.4 |
| 20260901005018 | 81 | 270 | 2.0 | 8.0 | 0.00 | 0.00 | 0.00 | 33 | 1019.3 |
| 20260901004535 | 81 | 301 | 2.0 | 8.0 | 0.00 | 0.00 | 0.00 | 33 | 1019.3 |
| 20260901004004 | 81 | 286 | 2.0 | 4.0 | 0.00 | 0.00 | 0.00 | 33 | 1019.2 |
| 20260901003504 | 81 | 321 | 1.0 | 3.0 | 0.00 | 0.00 | 0.00 | 33 | 1019.2 |
| 20260901003011 | 82 | 270 | 0.0 | 3.0 | 0.00 | 0.00 | 0.00 | 33 | 1019.3 |
| 20260901002506 | 82 | 315 | 1.0 | 7.0 | 0.00 | 0.00 | 0.00 | 33 | 1019.2 |
| 20260901002012 | 82 | 289 | 2.0 | 7.0 | 0.00 | 0.00 | 0.00 | 33 | 1019.2 |
| 20260901001517 | 82 | 302 | 0.0 | 3.0 | 0.00 | 0.00 | 0.00 | 33 | 1019.2 |
| 20260901001014 | 82 | 210 | 0.0 | 1.0 | 0.00 | 0.00 | 0.00 | 34 | 1019.2 |
| 20260901000509 | 82 | 206 | 0.0 | 2.0 | 0.00 | 0.00 | 0.00 | 33 | 1019.2 |
| 20260901000023 | 82 | 164 | 0.0 | 2.0 | 0.00 | 0.00 | 0.00 | 33 | 1019.2 |
| 20260831235515 | 82 | 127 | 0.0 | 2.0 | 0.00 | 0.00 | 0.00 | 33 | 1019.2 |
| 20260831235013 | 82 | 133 | 0.0 | 3.0 | 0.00 | 0.00 | 0.00 | 32 | 1019.2 |
| 20260831234529 | 83 | 129 | 1.0 | 3.0 | 0.00 | 0.00 | 0.00 | 32 | 1019.2 |
| 20260831234017 | 83 | 146 | 0.0 | 3.0 | 0.00 | 0.00 | 0.00 | 32 | 1019.2 |
| 20260831233515 | 83 | 153 | 0.0 | 3.0 | 0.00 | 0.00 | 0.00 | 32 | 1019.2 |
| 20260831233006 | 83 | 164 | 1.0 | 3.0 | 0.00 | 0.00 | 0.00 | 32 | 1019.2 |
| 20260831232507 | 83 | 173 | 0.0 | 3.0 | 0.00 | 0.00 | 0.00 | 32 | 1019.2 |
| 20260831232008 | 83 | 126 | 1.0 | 4.0 | 0.00 | 0.00 | 0.00 | 32 | 1019.3 |
| 20260831231512 | 83 | 161 | 1.0 | 4.0 | 0.00 | 0.00 | 0.00 | 33 | 1019.3 |
| 20260831231010 | 83 | 148 | 1.0 | 4.0 | 0.00 | 0.00 | 0.00 | 34 | 1019.3 |
| 20260831230511 | 83 | 150 | 1.0 | 4.0 | 0.00 | 0.00 | 0.00 | 33 | 1019.3 |
| 20260831230020 | 84 | 175 | 1.0 | 4.0 | 0.00 | 0.00 | 0.00 | 33 | 1019.4 |
| 20260831225514 | 84 | 191 | 1.0 | 4.0 | 0.00 | 0.00 | 0.00 | 33 | 1019.4 |
| 20260831225018 | 84 | 212 | 1.0 | 4.0 | 0.00 | 0.00 | 0.00 | 33 | 1019.4 |
| 20260831224528 | 84 | 31 | 2.0 | 4.0 | 0.00 | 0.00 | 0.00 | 32 | 1019.4 |
| 20260831224017 | 84 | 186 | 0.0 | 6.0 | 0.00 | 0.00 | 0.00 | 32 | 1019.3 |
| 20260831223514 | 84 | 194 | 1.0 | 9.0 | 0.00 | 0.00 | 0.00 | 33 | 1019.4 |
| 20260831223031 | 85 | 185 | 3.0 | 9.0 | 0.00 | 0.00 | 0.00 | 33 | 1019.4 |
| 20260831222516 | 85 | 167 | 1.0 | 6.0 | 0.00 | 0.00 | 0.00 | 32 | 1019.4 |
| 20260831222015 | 85 | 14 | 1.0 | 6.0 | 0.00 | 0.00 | 0.00 | 31 | 1019.4 |
| 20260831221512 | 85 | 206 | 2.0 | 10.0 | 0.00 | 0.00 | 0.00 | 31 | 1019.4 |
| 20260831221007 | 85 | 270 | 2.0 | 10.0 | 0.00 | 0.00 | 0.00 | 31 | 1019.4 |
| 20260831220508 | 86 | 234 | 2.0 | 7.0 | 0.00 | 0.00 | 0.00 | 31 | 1019.3 |
| 20260831220017 | 86 | 209 | 1.0 | 7.0 | 0.00 | 0.00 | 0.00 | 31 | 1019.3 |
| 20260831215513 | 86 | 131 | 2.0 | 8.0 | 0.00 | 0.00 | 0.00 | 32 | 1019.4 |
| 20260831215017 | 86 | 349 | 1.0 | 8.0 | 0.00 | 0.00 | 0.00 | 32 | 1019.4 |
| 20260831214524 | 86 | 253 | 1.0 | 9.0 | 0.00 | 0.00 | 0.00 | 31 | 1019.4 |
| 20260831214011 | 86 | 96 | 2.0 | 9.0 | 0.00 | 0.00 | 0.00 | 32 | 1019.5 |
| 20260831213516 | 87 | 173 | 0.0 | 5.0 | 0.00 | 0.00 | 0.00 | 35 | 1019.6 |
| 20260831213028 | 87 | 173 | 2.0 | 5.0 | 0.00 | 0.00 | 0.00 | 32 | 1019.6 |
| 20260831212517 | 87 | 214 | 1.0 | 4.0 | 0.00 | 0.00 | 0.00 | 32 | 1019.6 |
| 20260831212015 | 87 | 275 | 0.0 | 4.0 | 0.00 | 0.00 | 0.00 | 33 | 1019.7 |
| 20260831211531 | 86 | 127 | 1.0 | 4.0 | 0.00 | 0.00 | 0.00 | 33 | 1019.7 |
| 20260831211019 | 86 | 223 | 1.0 | 4.0 | 0.00 | 0.00 | 0.00 | 34 | 1019.9 |
| 20260831210508 | 86 | 337 | 1.0 | 4.0 | 0.00 | 0.00 | 0.00 | 35 | 1019.9 |
| 20260831210011 | 85 | 217 | 1.0 | 6.0 | 0.00 | 0.00 | 0.00 | 37 | 1020.0 |
| 20260831205510 | 85 | 248 | 3.0 | 6.0 | 0.00 | 0.00 | 0.00 | 36 | 1020.1 |
| 20260831205012 | 84 | 187 | 0.0 | 6.0 | 0.00 | 0.00 | 0.00 | 35 | 1020.1 |
| 20260831204518 | 84 | 56 | 2.0 | 5.0 | 0.00 | 0.00 | 0.00 | 35 | 1020.2 |
| 20260831204012 | 84 | 161 | 1.0 | 4.0 | 0.00 | 0.00 | 0.00 | 35 | 1020.2 |
| 20260831203511 | 84 | 189 | 1.0 | 8.0 | 0.00 | 0.00 | 0.00 | 35 | 1020.4 |
| 20260831203025 | 84 | 193 | 1.0 | 8.0 | 0.00 | 0.00 | 0.00 | 34 | 1020.5 |
| 20260831202515 | 84 | 270 | 1.0 | 5.0 | 0.00 | 0.00 | 0.00 | 34 | 1020.5 |
| 20260831202017 | 84 | 162 | 1.0 | 6.0 | 0.00 | 0.00 | 0.00 | 34 | 1020.6 |
| 20260831201530 | 84 | 201 | 2.0 | 6.0 | 0.00 | 0.00 | 0.00 | 33 | 1020.6 |
| 20260831201015 | 84 | 183 | 1.0 | 5.0 | 0.00 | 0.00 | 0.00 | 34 | 1020.6 |
| 20260831200520 | 83 | 138 | 2.0 | 7.0 | 0.00 | 0.00 | 0.00 | 32 | 1020.8 |
| 20260831200040 | 83 | 189 | 1.0 | 7.0 | 0.00 | 0.00 | 0.00 | 32 | 1020.8 |
| 20260831195517 | 83 | 110 | 2.0 | 8.0 | 0.00 | 0.00 | 0.00 | 33 | 1020.9 |
| 20260831195010 | 83 | 156 | 2.0 | 8.0 | 0.00 | 0.00 | 0.00 | 33 | 1020.9 |
| 20260831194517 | 83 | 179 | 2.0 | 8.0 | 0.00 | 0.00 | 0.00 | 33 | 1020.9 |
| 20260831194012 | 83 | 113 | 3.0 | 6.0 | 0.00 | 0.00 | 0.00 | 33 | 1021.0 |
| 20260831193514 | 84 | 181 | 2.0 | 6.0 | 0.00 | 0.00 | 0.00 | 31 | 1021.0 |
| 20260831193033 | 84 | 201 | 1.0 | 6.0 | 0.00 | 0.00 | 0.00 | 33 | 1021.0 |
| 20260831192512 | 83 | 225 | 1.0 | 6.0 | 0.00 | 0.00 | 0.00 | 34 | 1021.0 |
| 20260831192020 | 83 | 178 | 2.0 | 6.0 | 0.00 | 0.00 | 0.00 | 35 | 1021.1 |
| 20260831191534 | 83 | 119 | 1.0 | 7.0 | 0.00 | 0.00 | 0.00 | 35 | 1021.2 |
| 20260831191016 | 83 | 148 | 2.0 | 7.0 | 0.00 | 0.00 | 0.00 | 36 | 1021.5 |
| 20260831190516 | 82 | 138 | 2.0 | 7.0 | 0.00 | 0.00 | 0.00 | 36 | 1021.6 |
| 20260831190031 | 82 | 30 | 2.0 | 5.0 | 0.00 | 0.00 | 0.00 | 37 | 1021.6 |
| 20260831185516 | 81 | 128 | 1.0 | 4.0 | 0.00 | 0.00 | 0.00 | 37 | 1021.6 |
| 20260831185019 | 81 | 98 | 1.0 | 4.0 | 0.00 | 0.00 | 0.00 | 35 | 1021.6 |
| 20260831184531 | 81 | 190 | 1.0 | 5.0 | 0.00 | 0.00 | 0.00 | 37 | 1021.6 |
| 20260831184008 | 81 | 175 | 2.0 | 5.0 | 0.00 | 0.00 | 0.00 | 38 | 1021.7 |
| 20260831183511 | 81 | 150 | 1.0 | 8.0 | 0.00 | 0.00 | 0.00 | 39 | 1021.7 |
| 20260831183018 | 80 | 178 | 1.0 | 8.0 | 0.00 | 0.00 | 0.00 | 36 | 1021.7 |
| 20260831182515 | 81 | 194 | 2.0 | 6.0 | 0.00 | 0.00 | 0.00 | 36 | 1021.7 |
| 20260831182012 | 81 | 148 | 2.0 | 6.0 | 0.00 | 0.00 | 0.00 | 37 | 1021.8 |
| 20260831181526 | 81 | 152 | 0.0 | 3.0 | 0.00 | 0.00 | 0.00 | 36 | 1021.8 |
| 20260831181013 | 81 | 160 | 1.0 | 5.0 | 0.00 | 0.00 | 0.00 | 35 | 1021.9 |
| 20260831180516 | 81 | 147 | 1.0 | 5.0 | 0.00 | 0.00 | 0.00 | 38 | 1021.9 |
| 20260831180041 | 81 | 125 | 1.0 | 6.0 | 0.00 | 0.00 | 0.00 | 37 | 1022.0 |
| 20260831175517 | 80 | 40 | 2.0 | 6.0 | 0.00 | 0.00 | 0.00 | 37 | 1022.1 |
| 20260831175014 | 80 | 139 | 1.0 | 7.0 | 0.00 | 0.00 | 0.00 | 37 | 1022.1 |
| 20260831174534 | 80 | 49 | 2.0 | 7.0 | 0.00 | 0.00 | 0.00 | 35 | 1022.0 |
| 20260831174022 | 80 | 52 | 3.0 | 7.0 | 0.00 | 0.00 | 0.00 | 35 | 1022.1 |
| 20260831173518 | 81 | 32 | 2.0 | 7.0 | 0.00 | 0.00 | 0.00 | 37 | 1022.0 |
| 20260831173033 | 81 | 47 | 2.0 | 4.0 | 0.00 | 0.00 | 0.00 | 35 | 1022.1 |
| 20260831172510 | 81 | 15 | 0.0 | 6.0 | 0.00 | 0.00 | 0.00 | 35 | 1022.1 |
| 20260831172014 | 81 | 129 | 1.0 | 7.0 | 0.00 | 0.00 | 0.00 | 35 | 1022.1 |
| 20260831171524 | 81 | 46 | 2.0 | 7.0 | 0.00 | 0.00 | 0.00 | 36 | 1022.1 |
| 20260831171014 | 81 | 46 | 2.0 | 6.0 | 0.00 | 0.00 | 0.00 | 37 | 1022.1 |
| 20260831170515 | 81 | 38 | 2.0 | 6.0 | 0.00 | 0.00 | 0.00 | 38 | 1022.1 |
| 20260831170028 | 81 | 28 | 2.0 | 4.0 | 0.00 | 0.00 | 0.00 | 36 | 1022.0 |
| 20260831165516 | 81 | 64 | 1.0 | 6.0 | 0.00 | 0.00 | 0.00 | 39 | 1022.1 |
| 20260831165016 | 81 | 33 | 2.0 | 7.0 | 0.00 | 0.00 | 0.00 | 38 | 1022.1 |
| 20260831164545 | 81 | 67 | 1.0 | 7.0 | 0.00 | 0.00 | 0.00 | 39 | 1022.0 |
| 20260831164018 | 81 | 312 | 2.0 | 7.0 | 0.00 | 0.00 | 0.00 | 38 | 1022.0 |
| 20260831163520 | 81 | 62 | 4.0 | 7.0 | 0.00 | 0.00 | 0.00 | 40 | 1022.0 |
| 20260831163034 | 81 | 68 | 4.0 | 7.0 | 0.00 | 0.00 | 0.00 | 39 | 1022.0 |
| 20260831162517 | 81 | 130 | 0.0 | 7.0 | 0.00 | 0.00 | 0.00 | 39 | 1022.0 |
| 20260831162020 | 81 | 58 | 1.0 | 6.0 | 0.00 | 0.00 | 0.00 | 39 | 1021.9 |
| 20260831161536 | 80 | 69 | 1.0 | 6.0 | 0.00 | 0.00 | 0.00 | 40 | 1021.8 |
| 20260831161010 | 79 | 59 | 2.0 | 5.0 | 0.00 | 0.00 | 0.00 | 41 | 1021.8 |
| 20260831160511 | 78 | 75 | 1.0 | 4.0 | 0.00 | 0.00 | 0.00 | 44 | 1021.8 |
| 20260831160027 | 78 | 29 | 1.0 | 4.0 | 0.00 | 0.00 | 0.00 | 44 | 1021.9 |
| 20260831155516 | 78 | 51 | 1.0 | 4.0 | 0.00 | 0.00 | 0.00 | 44 | 1021.8 |
| 20260831155016 | 78 | 83 | 1.0 | 3.0 | 0.00 | 0.00 | 0.00 | 45 | 1021.8 |
| 20260831154556 | 77 | 69 | 1.0 | 4.0 | 0.00 | 0.00 | 0.00 | 44 | 1021.9 |
| 20260831154020 | 76 | 74 | 1.0 | 4.0 | 0.00 | 0.00 | 0.00 | 47 | 1021.8 |
| 20260831153517 | 75 | 258 | 0.0 | 2.0 | 0.00 | 0.00 | 0.00 | 47 | 1021.7 |
| 20260831153032 | 74 | 283 | 1.0 | 2.0 | 0.00 | 0.00 | 0.00 | 51 | 1021.7 |
| 20260831152523 | 73 | 280 | 0.0 | 2.0 | 0.00 | 0.00 | 0.00 | 54 | 1021.7 |
| 20260831152019 | 72 | 283 | 0.0 | 2.0 | 0.00 | 0.00 | 0.00 | 53 | 1021.8 |
| 20260831151534 | 72 | 285 | 0.0 | 2.0 | 0.00 | 0.00 | 0.00 | 55 | 1021.8 |
| 20260831151018 | 71 | 287 | 0.0 | 3.0 | 0.00 | 0.00 | 0.00 | 55 | 1021.7 |
| 20260831150518 | 71 | 283 | 0.0 | 3.0 | 0.00 | 0.00 | 0.00 | 56 | 1021.9 |
| 20260831150018 | 70 | 283 | 1.0 | 3.0 | 0.00 | 0.00 | 0.00 | 55 | 1021.8 |
| 20260831145516 | 70 | 279 | 1.0 | 3.0 | 0.00 | 0.00 | 0.00 | 57 | 1021.8 |
| 20260831145013 | 69 | 282 | 0.0 | 2.0 | 0.00 | 0.00 | 0.00 | 60 | 1021.9 |
| 20260831144527 | 68 | 285 | 0.0 | 3.0 | 0.00 | 0.00 | 0.00 | 61 | 1021.9 |
| 20260831144016 | 68 | 282 | 0.0 | 3.0 | 0.00 | 0.00 | 0.00 | 62 | 1021.8 |
| 20260831143516 | 67 | 281 | 0.0 | 1.0 | 0.00 | 0.00 | 0.00 | 61 | 1021.6 |
| 20260831143033 | 66 | 281 | 0.0 | 0.0 | 0.00 | 0.00 | 0.00 | 62 | 1021.6 |
| 20260831142516 | 66 | 281 | 0.0 | 2.0 | 0.00 | 0.00 | 0.00 | 62 | 1021.6 |
| 20260831142020 | 65 | 279 | 0.0 | 2.0 | 0.00 | 0.00 | 0.00 | 60 | 1021.5 |
| 20260831141535 | 65 | 279 | 0.0 | 2.0 | 0.00 | 0.00 | 0.00 | 58 | 1021.4 |
| 20260831141018 | 65 | 270 | 0.0 | 1.0 | 0.00 | 0.00 | 0.00 | 58 | 1021.5 |
| 20260831140518 | 64 | 270 | 0.0 | 1.0 | 0.00 | 0.00 | 0.00 | 58 | 1021.3 |
| 20260831140033 | 64 | 270 | 0.0 | 4.0 | 0.00 | 0.00 | 0.00 | 59 | 1021.2 |
| 20260831135518 | 63 | 270 | 0.0 | 4.0 | 0.00 | 0.00 | 0.00 | 57 | 1021.1 |
| 20260831135019 | 63 | 270 | 1.0 | 4.0 | 0.00 | 0.00 | 0.00 | 58 | 1020.9 |
| 20260831134527 | 63 | 270 | 2.0 | 4.0 | 0.00 | 0.00 | 0.00 | 58 | 1020.9 |
| 20260831134015 | 63 | 270 | 2.0 | 4.0 | 0.00 | 0.00 | 0.00 | 58 | 1021.1 |
| 20260831133516 | 62 | 270 | 1.0 | 5.0 | 0.00 | 0.00 | 0.00 | 59 | 1021.0 |
| 20260831133030 | 62 | 270 | 2.0 | 5.0 | 0.00 | 0.00 | 0.00 | 58 | 1021.0 |
| 20260831132516 | 62 | 270 | 1.0 | 4.0 | 0.00 | 0.00 | 0.00 | 59 | 1020.9 |
| 20260831132016 | 62 | 270 | 2.0 | 4.0 | 0.00 | 0.00 | 0.00 | 59 | 1020.7 |
| 20260831131530 | 62 | 270 | 0.0 | 3.0 | 0.00 | 0.00 | 0.00 | 60 | 1020.8 |
| 20260831131017 | 61 | 270 | 0.0 | 3.0 | 0.00 | 0.00 | 0.00 | 60 | 1020.7 |
| 20260831130518 | 61 | 270 | 0.0 | 1.0 | 0.00 | 0.00 | 0.00 | 61 | 1020.7 |
| 20260831130033 | 61 | 270 | 0.0 | 3.0 | 0.00 | 0.00 | 0.00 | 63 | 1020.6 |
| 20260831125517 | 61 | 270 | 0.0 | 4.0 | 0.00 | 0.00 | 0.00 | 61 | 1020.6 |
| 20260831125019 | 61 | 270 | 2.0 | 4.0 | 0.00 | 0.00 | 0.00 | 61 | 1020.5 |
| 20260831124533 | 61 | 270 | 2.0 | 4.0 | 0.00 | 0.00 | 0.00 | 61 | 1020.4 |
| 20260831124019 | 61 | 270 | 0.0 | 0.0 | 0.00 | 0.00 | 0.00 | 63 | 1020.5 |
| 20260831123518 | 61 | 270 | 0.0 | 0.0 | 0.00 | 0.00 | 0.00 | 63 | 1020.4 |
| 20260831123027 | 61 | 270 | 0.0 | 3.0 | 0.00 | 0.00 | 0.00 | 62 | 1020.2 |
| 20260831122516 | 61 | 270 | 0.0 | 4.0 | 0.00 | 0.00 | 0.00 | 62 | 1020.2 |
| 20260831122014 | 61 | 270 | 1.0 | 4.0 | 0.00 | 0.00 | 0.00 | 63 | 1020.2 |
| 20260831121532 | 60 | 286 | 1.0 | 4.0 | 0.00 | 0.00 | 0.00 | 64 | 1020.2 |
| 20260831121018 | 61 | 270 | 1.0 | 3.0 | 0.00 | 0.00 | 0.00 | 66 | 1020.1 |
| 20260831120518 | 61 | 270 | 0.0 | 3.0 | 0.00 | 0.00 | 0.00 | 67 | 1020.2 |
| 20260831120040 | 61 | 270 | 0.0 | 3.0 | 0.00 | 0.00 | 0.00 | 67 | 1020.2 |
| 20260831115519 | 61 | 283 | 0.0 | 0.0 | 0.00 | 0.00 | 0.00 | 66 | 1020.1 |
| 20260831115018 | 61 | 279 | 0.0 | 0.0 | 0.00 | 0.00 | 0.00 | 67 | 1020.2 |
| 20260831114537 | 61 | 279 | 0.0 | 2.0 | 0.00 | 0.00 | 0.00 | 66 | 1020.2 |
| 20260831114019 | 61 | 279 | 0.0 | 5.0 | 0.00 | 0.00 | 0.00 | 65 | 1020.1 |
| 20260831113519 | 61 | 279 | 2.0 | 5.0 | 0.00 | 0.00 | 0.00 | 65 | 1020.2 |
| 20260831113033 | 61 | 279 | 0.0 | 3.0 | 0.00 | 0.00 | 0.00 | 66 | 1020.1 |
| 20260831112518 | 61 | 279 | 0.0 | 0.0 | 0.00 | 0.00 | 0.00 | 67 | 1020.0 |
| 20260831112014 | 62 | 270 | 0.0 | 0.0 | 0.00 | 0.00 | 0.00 | 68 | 1020.0 |
| 20260831111529 | 62 | 279 | 0.0 | 3.0 | 0.00 | 0.00 | 0.00 | 67 | 1020.0 |
| 20260831111015 | 62 | 279 | 0.0 | 5.0 | 0.00 | 0.00 | 0.00 | 66 | 1019.9 |
| 20260831110521 | 62 | 279 | 1.0 | 5.0 | 0.00 | 0.00 | 0.00 | 67 | 1019.9 |
| 20260831110033 | 62 | 287 | 0.0 | 2.0 | 0.00 | 0.00 | 0.00 | 67 | 1019.9 |
| 20260831105517 | 62 | 279 | 0.0 | 2.0 | 0.00 | 0.00 | 0.00 | 66 | 1019.9 |
| 20260831105018 | 62 | 279 | 0.0 | 2.0 | 0.00 | 0.00 | 0.00 | 64 | 1019.7 |
| 20260831104548 | 62 | 279 | 0.0 | 2.0 | 0.00 | 0.00 | 0.00 | 65 | 1019.7 |
| 20260831104021 | 63 | 281 | 0.0 | 2.0 | 0.00 | 0.00 | 0.00 | 65 | 1019.7 |
| 20260831103521 | 63 | 281 | 0.0 | 2.0 | 0.00 | 0.00 | 0.00 | 65 | 1019.7 |
| 20260831103037 | 63 | 282 | 0.0 | 2.0 | 0.00 | 0.00 | 0.00 | 65 | 1019.7 |
| 20260831102521 | 63 | 283 | 0.0 | 2.0 | 0.00 | 0.00 | 0.00 | 65 | 1019.7 |
| 20260831102018 | 63 | 283 | 0.0 | 2.0 | 0.00 | 0.00 | 0.00 | 65 | 1019.6 |
| 20260831101537 | 63 | 283 | 0.0 | 1.0 | 0.00 | 0.00 | 0.00 | 65 | 1019.5 |
| 20260831101019 | 63 | 282 | 0.0 | 3.0 | 0.00 | 0.00 | 0.00 | 64 | 1019.6 |
| 20260831100508 | 63 | 282 | 0.0 | 3.0 | 0.00 | 0.00 | 0.00 | 64 | 1019.5 |
| 20260831100012 | 63 | 287 | 0.0 | 2.0 | 0.00 | 0.00 | 0.00 | 63 | 1019.3 |
| 20260831095510 | 63 | 287 | 0.0 | 2.0 | 0.00 | 0.00 | 0.00 | 63 | 1019.2 |
| 20260831095007 | 63 | 279 | 0.0 | 2.0 | 0.00 | 0.00 | 0.00 | 65 | 1019.1 |
| 20260831094512 | 63 | 279 | 0.0 | 5.0 | 0.00 | 0.00 | 0.00 | 67 | 1019.2 |
| 20260831094007 | 63 | 285 | 0.0 | 5.0 | 0.00 | 0.00 | 0.00 | 66 | 1019.0 |
| 20260831093511 | 63 | 283 | 0.0 | 4.0 | 0.00 | 0.00 | 0.00 | 67 | 1018.9 |
| 20260831093027 | 63 | 279 | 1.0 | 4.0 | 0.00 | 0.00 | 0.00 | 67 | 1019.0 |
| 20260831092513 | 63 | 281 | 0.0 | 2.0 | 0.00 | 0.00 | 0.00 | 67 | 1019.0 |
| 20260831092008 | 63 | 281 | 0.0 | 3.0 | 0.00 | 0.00 | 0.00 | 68 | 1018.9 |
| 20260831091515 | 63 | 280 | 0.0 | 3.0 | 0.00 | 0.00 | 0.00 | 68 | 1019.0 |
| 20260831091008 | 63 | 283 | 0.0 | 4.0 | 0.00 | 0.00 | 0.00 | 69 | 1019.0 |
| 20260831090510 | 63 | 283 | 2.0 | 4.0 | 0.00 | 0.00 | 0.00 | 69 | 1018.8 |
| 20260831090015 | 63 | 283 | 1.0 | 3.0 | 0.00 | 0.00 | 0.00 | 69 | 1018.9 |
| 20260831085510 | 63 | 279 | 1.0 | 3.0 | 0.00 | 0.00 | 0.00 | 69 | 1019.0 |
| 20260831085012 | 64 | 282 | 0.0 | 1.0 | 0.00 | 0.00 | 0.00 | 65 | 1019.0 |
| 20260831084514 | 64 | 282 | 0.0 | 2.0 | 0.00 | 0.00 | 0.00 | 64 | 1019.0 |
| 20260831084007 | 64 | 282 | 0.0 | 2.0 | 0.00 | 0.00 | 0.00 | 66 | 1019.1 |
| 20260831083507 | 64 | 282 | 0.0 | 1.0 | 0.00 | 0.00 | 0.00 | 64 | 1019.0 |
| 20260831083013 | 65 | 282 | 0.0 | 2.0 | 0.00 | 0.00 | 0.00 | 65 | 1018.9 |
| 20260831082508 | 65 | 282 | 0.0 | 2.0 | 0.00 | 0.00 | 0.00 | 63 | 1018.9 |
| 20260831082013 | 65 | 282 | 0.0 | 2.0 | 0.00 | 0.00 | 0.00 | 62 | 1018.9 |
| 20260831081515 | 66 | 282 | 0.0 | 2.0 | 0.00 | 0.00 | 0.00 | 62 | 1018.9 |
| 20260831081013 | 66 | 279 | 0.0 | 1.0 | 0.00 | 0.00 | 0.00 | 59 | 1018.9 |
| 20260831080508 | 66 | 279 | 0.0 | 3.0 | 0.00 | 0.00 | 0.00 | 58 | 1019.0 |
| 20260831080021 | 66 | 279 | 1.0 | 3.0 | 0.00 | 0.00 | 0.00 | 56 | 1019.1 |
| 20260831075510 | 66 | 279 | 0.0 | 2.0 | 0.00 | 0.00 | 0.00 | 58 | 1019.2 |
| 20260831075009 | 66 | 279 | 0.0 | 2.0 | 0.00 | 0.00 | 0.00 | 58 | 1019.2 |
| 20260831074520 | 66 | 279 | 1.0 | 3.0 | 0.00 | 0.00 | 0.00 | 57 | 1019.3 |
| 20260831074010 | 66 | 279 | 0.0 | 4.0 | 0.00 | 0.00 | 0.00 | 59 | 1019.2 |
| 20260831073511 | 66 | 270 | 1.0 | 9.0 | 0.00 | 0.00 | 0.00 | 60 | 1019.2 |
| 20260831073018 | 66 | 279 | 1.0 | 9.0 | 0.00 | 0.00 | 0.00 | 58 | 1019.3 |
| 20260831072507 | 64 | 279 | 3.0 | 9.0 | 0.00 | 0.00 | 0.00 | 57 | 1019.2 |
| 20260831072010 | 63 | 286 | 0.0 | 2.0 | 0.00 | 0.00 | 0.00 | 69 | 1019.3 |
| 20260831071527 | 63 | 279 | 0.0 | 1.0 | 0.00 | 0.00 | 0.00 | 77 | 1019.3 |
| 20260831071012 | 63 | 279 | 0.0 | 0.0 | 0.00 | 0.00 | 0.00 | 78 | 1019.3 |
| 20260831070511 | 63 | 279 | 0.0 | 3.0 | 0.00 | 0.00 | 0.00 | 77 | 1019.3 |
| 20260831070016 | 63 | 279 | 0.0 | 3.0 | 0.00 | 0.00 | 0.00 | 78 | 1019.4 |
| 20260831065512 | 63 | 279 | 0.0 | 3.0 | 0.00 | 0.00 | 0.00 | 77 | 1019.5 |
| 20260831065010 | 63 | 279 | 0.0 | 2.0 | 0.00 | 0.00 | 0.00 | 77 | 1019.4 |
| 20260831064517 | 63 | 279 | 0.0 | 0.0 | 0.00 | 0.00 | 0.00 | 76 | 1019.4 |
| 20260831064011 | 63 | 279 | 0.0 | 5.0 | 0.00 | 0.00 | 0.00 | 75 | 1019.6 |
| 20260831063511 | 63 | 279 | 0.0 | 5.0 | 0.00 | 0.00 | 0.00 | 76 | 1019.7 |
| 20260831063019 | 63 | 279 | 2.0 | 5.0 | 0.00 | 0.00 | 0.00 | 76 | 1019.7 |
| 20260831062513 | 63 | 279 | 0.0 | 4.0 | 0.00 | 0.00 | 0.00 | 75 | 1019.5 |
| 20260831062011 | 64 | 283 | 0.0 | 1.0 | 0.00 | 0.00 | 0.00 | 75 | 1019.6 |
| 20260831061519 | 64 | 283 | 0.0 | 2.0 | 0.00 | 0.00 | 0.00 | 75 | 1019.7 |
| 20260831061011 | 64 | 283 | 0.0 | 2.0 | 0.00 | 0.00 | 0.00 | 75 | 1019.6 |
| 20260831060512 | 64 | 284 | 0.0 | 2.0 | 0.00 | 0.00 | 0.00 | 75 | 1019.5 |
| 20260831060021 | 64 | 279 | 0.0 | 2.0 | 0.00 | 0.00 | 0.00 | 74 | 1020.0 |
| 20260831055511 | 65 | 279 | 0.0 | 2.0 | 0.00 | 0.00 | 0.00 | 75 | 1020.2 |
| 20260831055011 | 65 | 279 | 0.0 | 3.0 | 0.00 | 0.00 | 0.00 | 74 | 1020.0 |
| 20260831054519 | 65 | 279 | 1.0 | 3.0 | 0.00 | 0.00 | 0.00 | 73 | 1019.9 |
| 20260831054013 | 66 | 279 | 1.0 | 3.0 | 0.00 | 0.00 | 0.00 | 71 | 1019.9 |
| 20260831053515 | 66 | 279 | 0.0 | 2.0 | 0.00 | 0.00 | 0.00 | 69 | 1020.0 |
| 20260831053022 | 66 | 279 | 0.0 | 2.0 | 0.00 | 0.00 | 0.00 | 69 | 1020.0 |
| 20260831052513 | 67 | 279 | 0.0 | 1.0 | 0.00 | 0.00 | 0.00 | 65 | 1020.2 |
| 20260831052015 | 67 | 279 | 0.0 | 1.0 | 0.00 | 0.00 | 0.00 | 63 | 1020.2 |
| 20260831051521 | 67 | 279 | 0.0 | 2.0 | 0.00 | 0.00 | 0.00 | 60 | 1020.2 |
| 20260831051012 | 67 | 279 | 0.0 | 3.0 | 0.00 | 0.00 | 0.00 | 57 | 1020.2 |
| 20260831050515 | 66 | 279 | 2.0 | 3.0 | 0.00 | 0.00 | 0.00 | 56 | 1020.2 |
| 20260831050023 | 67 | 285 | 1.0 | 3.0 | 0.00 | 0.00 | 0.00 | 56 | 1020.3 |
| 20260831045512 | 67 | 279 | 0.0 | 3.0 | 0.00 | 0.00 | 0.00 | 55 | 1020.3 |
| 20260831045012 | 67 | 279 | 0.0 | 4.0 | 0.00 | 0.00 | 0.00 | 55 | 1020.3 |
| 20260831044521 | 67 | 279 | 2.0 | 4.0 | 0.00 | 0.00 | 0.00 | 55 | 1020.4 |
| 20260831044014 | 67 | 287 | 0.0 | 3.0 | 0.00 | 0.00 | 0.00 | 55 | 1020.4 |
| 20260831043512 | 67 | 279 | 1.0 | 5.0 | 0.00 | 0.00 | 0.00 | 55 | 1020.4 |
| 20260831043020 | 67 | 285 | 0.0 | 7.0 | 0.00 | 0.00 | 0.00 | 55 | 1020.5 |
| 20260831042514 | 67 | 279 | 3.0 | 7.0 | 0.00 | 0.00 | 0.00 | 55 | 1020.5 |
| 20260831042012 | 67 | 279 | 2.0 | 7.0 | 0.00 | 0.00 | 0.00 | 55 | 1020.6 |
| 20260831041523 | 67 | 279 | 3.0 | 7.0 | 0.00 | 0.00 | 0.00 | 54 | 1020.5 |
| 20260831041016 | 67 | 275 | 1.0 | 5.0 | 0.00 | 0.00 | 0.00 | 53 | 1020.3 |
| 20260831040508 | 67 | 279 | 1.0 | 4.0 | 0.00 | 0.00 | 0.00 | 53 | 1020.2 |
| 20260831040009 | 67 | 279 | 2.0 | 4.0 | 0.00 | 0.00 | 0.00 | 53 | 1020.2 |
| 20260831035509 | 67 | 279 | 1.0 | 3.0 | 0.00 | 0.00 | 0.00 | 54 | 1020.0 |
| 20260831035007 | 67 | 279 | 0.0 | 6.0 | 0.00 | 0.00 | 0.00 | 54 | 1020.1 |
| 20260831034519 | 67 | 279 | 1.0 | 7.0 | 0.00 | 0.00 | 0.00 | 54 | 1020.3 |
| 20260831034013 | 67 | 279 | 2.0 | 7.0 | 0.00 | 0.00 | 0.00 | 55 | 1020.3 |
| 20260831033514 | 67 | 279 | 2.0 | 4.0 | 0.00 | 0.00 | 0.00 | 55 | 1020.4 |
| 20260831033034 | 67 | 279 | 1.0 | 4.0 | 0.00 | 0.00 | 0.00 | 56 | 1020.4 |
| 20260831032504 | 67 | 279 | 2.0 | 4.0 | 0.00 | 0.00 | 0.00 | 56 | 1020.4 |
| 20260831032002 | 67 | 270 | 1.0 | 4.0 | 0.00 | 0.00 | 0.00 | 57 | 1020.1 |
| 20260831031516 | 67 | 279 | 0.0 | 4.0 | 0.00 | 0.00 | 0.00 | 59 | 1019.7 |
| 20260831031007 | 67 | 287 | 0.0 | 0.0 | 0.00 | 0.00 | 0.00 | 60 | 1019.8 |
| 20260831030506 | 67 | 287 | 0.0 | 0.0 | 0.00 | 0.00 | 0.00 | 62 | 1019.6 |
| 20260831030008 | 67 | 287 | 0.0 | 1.0 | 0.00 | 0.00 | 0.00 | 62 | 1019.7 |
| 20260831025508 | 67 | 287 | 0.0 | 1.0 | 0.00 | 0.00 | 0.00 | 62 | 1019.7 |
| 20260831025010 | 67 | 270 | 0.0 | 1.0 | 0.00 | 0.00 | 0.00 | 61 | 1019.8 |
| 20260831024514 | 67 | 279 | 0.0 | 1.0 | 0.00 | 0.00 | 0.00 | 61 | 1019.8 |
| 20260831024012 | 68 | 279 | 0.0 | 2.0 | 0.00 | 0.00 | 0.00 | 61 | 1019.8 |
| 20260831023513 | 68 | 279 | 0.0 | 2.0 | 0.00 | 0.00 | 0.00 | 60 | 1019.6 |
| 20260831023025 | 68 | 282 | 0.0 | 1.0 | 0.00 | 0.00 | 0.00 | 60 | 1019.5 |
| 20260831022514 | 68 | 282 | 0.0 | 3.0 | 0.00 | 0.00 | 0.00 | 60 | 1019.4 |
| 20260831022015 | 68 | 282 | 0.0 | 4.0 | 0.00 | 0.00 | 0.00 | 60 | 1019.3 |
| 20260831021510 | 69 | 282 | 1.0 | 4.0 | 0.00 | 0.00 | 0.00 | 60 | 1019.2 |
| 20260831021003 | 69 | 279 | 0.0 | 4.0 | 0.00 | 0.00 | 0.00 | 55 | 1019.1 |
| 20260831020503 | 69 | 279 | 2.0 | 4.0 | 0.00 | 0.00 | 0.00 | 55 | 1019.0 |
| 20260831020004 | 70 | 287 | 0.0 | 2.0 | 0.00 | 0.00 | 0.00 | 54 | 1019.0 |
| 20260831015505 | 70 | 286 | 0.0 | 1.0 | 0.00 | 0.00 | 0.00 | 55 | 1018.9 |
| 20260831015007 | 70 | 286 | 0.0 | 1.0 | 0.00 | 0.00 | 0.00 | 54 | 1018.9 |